EUTELSAT 8 WEST B

Last updated on Mon Sep 15 2025 00:02:48 GMT+0000 (Coordinated Universal Time)

1 40875U 15039B 25257.22694330 -.00000077 00000+0 00000+0 0 9995 2 40875 0.0677 4.8801 0003714 169.2664 253.0127 1.00272239 36887
UTC large
Height (km)
Speed (km/s)
/
Latitude / Longitude
Inclination (degrees)
Orbital Period (minutes)
Azimuth
Elevation
Range (km)
Doppler Factor

Next 0 passes for location: London (51.5072 / 0.1276)

Sorry there are no passes over London.